Terug naar catalogus

DELTA 1 DEB

ActiefSSO
NORAD 12266·DEBRIS·🇺🇸 United States

Gelanceerd Mar 5, 1978 vanaf Vandenberg Space Force Base

Loading…

Volgende Passages (komende 24 uur)

TLE

VersSource: Space-Track

Epoch: Sep 14, 2026, 07:51 UTC

1 12266U 78026DK  26257.32714891  .00001542  00000-0  10045-2 0  9991
2 12266  98.7733  41.8448 0143553 154.4130 206.4230 13.98898685296362

Volg DELTA 1 DEB in realtime met AllMySat

Download on the App Store